New Bedford, MA

6:45 AM EDT on July 26, 2017 (GMT -0400)
New Bedford Regional

Weather History for KEWB - January, 2013

Change the Weather History Date:

Tuesday, January 15, 2013

  Actual Average Record
Temperature  
Mean Temperature 40 °F -  
Max Temperature 42 °F 35 °F 55 °F (1962)
Min Temperature 37 °F 21 °F -8 °F (1957)
Degree Days  
Heating Degree Days 26    
Moisture  
Dew Point 32 °F    
Average Humidity 78    
Maximum Humidity 96    
Minimum Humidity 65    
Precipitation  
Precipitation 0.17 in - - ()
Sea Level Pressure  
Sea Level Pressure 30.25 in    
Wind  
Wind Speed 1 mph (North)    
Max Wind Speed 5 mph    
Max Gust Speed -    
Visibility 10 miles    
Events Rain    
Averages and records for this station are not official NWS values.
T = Trace of Precipitation, MM = Missing Value Source: NWS Daily Summary

Daily Weather History Graph

Daily Weather History Graph

Search for Another Location

Airport or City:

Trip Planner

Search our weather history database for the weather conditions in past years. The results will help you decide how hot, cold, wet, or windy it might be!

Date:

Astronomy

Jan. 15, 2013 Rise Set
Actual Time 7:08 AM EST 4:38 PM EST
Civil Twilight 6:37 AM EST 5:09 PM EST
Nautical Twilight 6:03 AM EST 5:43 PM EST
Astronomical Twilight 5:30 AM EST 6:16 PM EST
Moon 9:08 AM EST (1/15) 9:29 PM EST (1/15)
Length of Visible Light 10h 31m
Length of Day
9h 30m
Waxing Crescent, 19% of the Moon is Illuminated
Jan 15
Waxing Crescent
Jan 18
First Quarter
Jan 26
Full
Feb 3
Last Quarter
Feb 10
New

Hourly Weather History & Observations

Time (EST) Temp. Windchill Dew Point Humidity Pressure Visibility Wind Dir Wind Speed Gust Speed Precip Events Conditions
12:53 AM 39.0 °F - 36.0 °F 89% 30.25 in 5.0 mi Calm Calm - 0.04 in Rain Light Rain
1:53 AM 37.9 °F - 35.1 °F 89% 30.26 in 5.0 mi Calm Calm - 0.06 in Rain Light Rain
2:53 AM 37.9 °F 35.5 °F 35.1 °F 89% 30.25 in 10.0 mi North 3.5 mph - 0.03 in Rain Light Rain
3:53 AM 37.0 °F - 35.1 °F 93% 30.25 in 10.0 mi Calm Calm - 0.04 in   Overcast
4:00 AM 37.4 °F - 35.6 °F 93% 30.23 in 10.0 mi Calm Calm - N/A   Overcast
4:53 AM 37.0 °F - 36.0 °F 96% 30.22 in 9.0 mi Calm Calm - 0.00 in Rain Light Rain
5:53 AM 37.9 °F - 35.1 °F 89% 30.22 in 10.0 mi Calm Calm - 0.00 in   Overcast
6:53 AM 37.0 °F - 35.1 °F 93% 30.24 in 10.0 mi Calm Calm - 0.00 in   Overcast
7:53 AM 37.0 °F - 35.1 °F 93% 30.27 in 10.0 mi Calm Calm - N/A   Overcast
8:53 AM 37.9 °F 35.5 °F 34.0 °F 86% 30.29 in 10.0 mi NNW 3.5 mph - N/A   Mostly Cloudy
9:53 AM 37.9 °F 34.4 °F 32.0 °F 79% 30.29 in - North 4.6 mph - N/A   Overcast
10:53 AM 39.0 °F 36.8 °F 32.0 °F 76% 30.28 in 10.0 mi Variable 3.5 mph - N/A   Overcast
11:53 AM 39.9 °F 37.8 °F 30.9 °F 70% 30.26 in 10.0 mi Variable 3.5 mph - N/A   Unknown
12:53 PM 41.0 °F 39.0 °F 30.0 °F 65% 30.26 in 10.0 mi North 3.5 mph - N/A   Unknown
1:53 PM 42.1 °F 40.2 °F 30.9 °F 65% 30.25 in 10.0 mi North 3.5 mph - N/A   Scattered Clouds
2:53 PM 42.1 °F 40.2 °F 30.9 °F 65% 30.25 in 10.0 mi Variable 3.5 mph - N/A   Mostly Cloudy
3:26 PM 41.0 °F 39.0 °F 30.2 °F 65% 30.24 in 10.0 mi NNE 3.5 mph - N/A   Partly Cloudy
3:53 PM 41.0 °F - 30.9 °F 67% 30.25 in 10.0 mi Calm Calm - N/A   Scattered Clouds
4:05 PM 41.0 °F - 30.2 °F 65% 30.23 in 10.0 mi Calm Calm - N/A   Mostly Cloudy
4:53 PM 39.0 °F - 30.9 °F 73% 30.25 in 10.0 mi Calm Calm - N/A   Overcast
5:53 PM 39.0 °F - 32.0 °F 76% 30.25 in 10.0 mi Calm Calm - N/A   Overcast
6:53 PM 37.9 °F - 30.9 °F 76% 30.25 in 10.0 mi Calm Calm - N/A   Overcast
7:53 PM 37.9 °F 34.4 °F 30.9 °F 76% 30.25 in 10.0 mi North 4.6 mph - N/A   Overcast
8:30 PM 37.4 °F - 28.4 °F 70% 30.25 in 10.0 mi Calm Calm - N/A   Overcast
8:53 PM 37.9 °F - 28.0 °F 68% 30.25 in 10.0 mi Calm Calm - N/A   Overcast
9:53 PM 37.9 °F - 28.0 °F 68% 30.24 in 10.0 mi Calm Calm - N/A   Overcast
10:53 PM 37.9 °F - 28.9 °F 70% 30.24 in 10.0 mi Calm Calm - N/A   Overcast
11:53 PM 37.0 °F 34.5 °F 28.0 °F 70% 30.22 in 10.0 mi North 3.5 mph - N/A   Overcast